Location: Poprad
(49.0500°N, 20.3000°E)
Time: 16:26:54
(UTC+02:00)

ISS - Visible Passes

Search period start: 25 September 2022 00:00
Search period end: 05 October 2022 00:00
Orbit: 414 x 417 km, 51.6° (Epoch: 25 September)

Date Brightness Start Highest point End Pass type
(mag) Time Alt. Az. Time Alt. Az. Time Alt. Az.
25 Sep -3.3 18:58:17 10° W 19:01:36 55° N 19:04:55 10° ENE visible
25 Sep -3.5 20:35:14 10° WNW 20:38:20 63° NNW 20:38:20 63° NNW visible
26 Sep -3.4 19:46:34 10° WNW 19:49:53 57° N 19:51:30 27° ENE visible
26 Sep -1.0 21:23:21 10° WNW 21:24:22 18° WNW 21:24:22 18° WNW visible
27 Sep -3.3 18:57:50 10° WNW 19:01:09 52° N 19:04:27 10° E visible
27 Sep -3.3 20:34:39 10° WNW 20:37:32 61° W 20:37:32 61° W visible
28 Sep -3.8 19:45:58 10° WNW 19:49:20 79° NNE 19:50:42 33° E visible
28 Sep -0.7 21:22:57 10° W 21:23:35 14° W 21:23:35 14° W visible
29 Sep -3.6 18:57:15 10° WNW 19:00:36 64° NNE 19:03:53 10° E visible
29 Sep -2.6 20:34:05 10° WNW 20:36:46 37° SW 20:36:46 37° SW visible
30 Sep -3.4 19:45:18 10° WNW 19:48:37 59° SSW 19:50:00 30° SE visible
01 Oct -3.7 18:56:32 10° WNW 18:59:54 83° SSW 19:03:16 10° ESE visible
01 Oct -1.6 20:33:46 10° W 20:36:10 19° SW 20:36:10 19° SW visible
02 Oct -2.2 19:44:43 10° W 19:47:40 29° SW 19:49:30 17° SSE visible
03 Oct -2.7 18:55:48 10° WNW 18:59:01 43° SSW 19:02:13 10° SE visible
04 Oct -1.0 19:44:42 10° WSW 19:46:29 14° SW 19:48:16 10° SSW visible
